TimeCDT,TemperatureF,Dew PointF,Humidity,Sea Level PressureIn,VisibilityMPH,Wind Direction,Wind SpeedMPH,Gust SpeedMPH,PrecipitationIn,Events,Conditions,WindDirDegrees,DateUTC
12:15 AM,64.6,63.9,98,30.08,10.0,Calm,Calm,-,N/A,,Clear,0,2013-09-07 05:15:00
12:35 AM,65.1,64.4,98,30.08,7.0,Calm,Calm,-,N/A,,Clear,0,2013-09-07 05:35:00
12:55 AM,63.9,63.5,99,30.08,7.0,Calm,Calm,-,N/A,,Clear,0,2013-09-07 05:55:00
1:15 AM,63.9,63.9,100,30.08,7.0,Calm,Calm,-,N/A,,Clear,0,2013-09-07 06:15:00
1:50 AM,62.6,62.6,100,30.07,5.0,Calm,Calm,-,N/A,,Clear,0,2013-09-07 06:50:00
1:55 AM,63.5,63.1,99,30.07,5.0,Calm,Calm,-,N/A,,Clear,0,2013-09-07 06:55:00
2:15 AM,63.0,62.8,99,30.07,7.0,Calm,Calm,-,N/A,,Clear,0,2013-09-07 07:15:00
2:35 AM,64.4,63.9,98,30.08,7.0,Calm,Calm,-,N/A,,Clear,0,2013-09-07 07:35:00
2:55 AM,61.9,61.9,100,30.07,5.0,Calm,Calm,-,N/A,,Clear,0,2013-09-07 07:55:00
3:15 AM,61.7,61.7,100,30.06,4.0,Calm,Calm,-,N/A,,Clear,0,2013-09-07 08:15:00
3:35 AM,61.7,61.7,100,30.06,5.0,Calm,Calm,-,N/A,,Clear,0,2013-09-07 08:35:00
3:55 AM,61.7,61.7,100,30.06,5.0,Calm,Calm,-,N/A,,Clear,0,2013-09-07 08:55:00
4:15 AM,61.0,61.0,100,30.07,4.0,Calm,Calm,-,N/A,,Clear,0,2013-09-07 09:15:00
4:35 AM,60.6,60.6,100,30.07,7.0,Calm,Calm,-,N/A,,Clear,0,2013-09-07 09:35:00
4:55 AM,61.0,61.0,100,30.07,5.0,Calm,Calm,-,N/A,,Clear,0,2013-09-07 09:55:00
5:15 AM,60.1,60.1,100,30.07,5.0,Calm,Calm,-,N/A,,Clear,0,2013-09-07 10:15:00
5:35 AM,59.7,59.7,100,30.07,7.0,Calm,Calm,-,N/A,,Clear,0,2013-09-07 10:35:00
5:55 AM,59.7,59.7,100,30.07,3.0,Calm,Calm,-,N/A,,Scattered Clouds,0,2013-09-07 10:55:00
6:15 AM,59.0,59.0,100,30.07,2.5,Calm,Calm,-,N/A,,Mist,0,2013-09-07 11:15:00
6:35 AM,60.1,60.1,100,30.09,1.8,Calm,Calm,-,N/A,,Mist,0,2013-09-07 11:35:00
6:55 AM,61.7,61.7,100,30.09,2.5,Calm,Calm,-,N/A,,Clear,0,2013-09-07 11:55:00
7:15 AM,61.7,61.7,100,30.08,3.0,Calm,Calm,-,N/A,,Clear,0,2013-09-07 12:15:00
7:35 AM,63.7,63.7,100,30.08,4.0,Calm,Calm,-,N/A,,Clear,0,2013-09-07 12:35:00
7:55 AM,65.8,65.8,100,30.08,5.0,Calm,Calm,-,N/A,,Clear,0,2013-09-07 12:55:00
8:15 AM,68.5,67.5,96,30.07,7.0,South,3.5,-,N/A,,Clear,190,2013-09-07 13:15:00
8:35 AM,70.5,68.0,92,30.07,10.0,SW,5.8,-,N/A,,Clear,220,2013-09-07 13:35:00
8:55 AM,73.8,68.2,83,30.07,10.0,SW,5.8,-,N/A,,Clear,230,2013-09-07 13:55:00
9:15 AM,75.9,66.9,74,30.08,10.0,SW,6.9,-,N/A,,Clear,230,2013-09-07 14:15:00
9:35 AM,77.4,65.8,67,30.08,10.0,WSW,6.9,-,N/A,,Clear,240,2013-09-07 14:35:00
9:55 AM,78.8,65.7,64,30.08,10.0,West,6.9,-,N/A,,Clear,260,2013-09-07 14:55:00
10:15 AM,79.7,64.9,61,30.08,10.0,WSW,8.1,-,N/A,,Clear,250,2013-09-07 15:15:00
10:35 AM,81.5,65.5,58,30.08,10.0,WSW,6.9,-,N/A,,Clear,250,2013-09-07 15:35:00
10:55 AM,82.6,64.9,55,30.08,10.0,West,8.1,-,N/A,,Clear,280,2013-09-07 15:55:00
11:15 AM,82.8,64.8,54,30.08,10.0,West,8.1,-,N/A,,Clear,270,2013-09-07 16:15:00
11:35 AM,83.7,64.4,52,30.07,10.0,West,5.8,-,N/A,,Clear,280,2013-09-07 16:35:00
11:55 AM,84.4,63.9,50,30.07,10.0,West,9.2,-,N/A,,Clear,280,2013-09-07 16:55:00
12:15 PM,84.2,63.1,49,30.06,10.0,West,3.5,-,N/A,,Clear,260,2013-09-07 17:15:00
12:35 PM,85.1,62.8,47,30.05,10.0,North,3.5,-,N/A,,Clear,360,2013-09-07 17:35:00
12:55 PM,86.0,63.7,47,30.04,10.0,West,6.9,-,N/A,,Clear,270,2013-09-07 17:55:00
1:15 PM,86.2,62.6,45,30.03,10.0,SW,6.9,-,N/A,,Clear,220,2013-09-07 18:15:00
1:35 PM,87.1,62.4,44,30.02,10.0,WSW,5.8,-,N/A,,Clear,250,2013-09-07 18:35:00
1:55 PM,85.8,61.5,44,30.01,10.0,WSW,3.5,-,N/A,,Clear,250,2013-09-07 18:55:00
2:15 PM,87.4,62.6,43,30.00,10.0,SW,11.5,-,N/A,,Clear,230,2013-09-07 19:15:00
2:35 PM,87.4,62.2,43,29.99,10.0,SSW,9.2,-,N/A,,Clear,200,2013-09-07 19:35:00
2:55 PM,88.0,63.0,43,29.98,10.0,SW,10.4,-,N/A,,Clear,230,2013-09-07 19:55:00
3:15 PM,87.4,63.9,45,29.97,10.0,SSW,10.4,-,N/A,,Clear,210,2013-09-07 20:15:00
3:35 PM,88.2,62.1,41,29.97,10.0,SW,10.4,-,N/A,,Clear,230,2013-09-07 20:35:00
3:55 PM,88.0,62.6,43,29.97,10.0,SW,4.6,-,N/A,,Clear,220,2013-09-07 20:55:00
4:15 PM,88.0,61.9,41,29.97,10.0,SW,8.1,-,N/A,,Clear,220,2013-09-07 21:15:00
4:35 PM,88.0,61.7,41,29.97,10.0,WSW,8.1,-,N/A,,Clear,240,2013-09-07 21:35:00
4:55 PM,88.0,61.7,41,29.96,10.0,WSW,8.1,-,N/A,,Clear,250,2013-09-07 21:55:00
5:15 PM,87.8,61.5,41,29.96,10.0,SW,9.2,-,N/A,,Clear,220,2013-09-07 22:15:00
5:35 PM,87.1,61.9,43,29.97,10.0,SW,5.8,-,N/A,,Clear,220,2013-09-07 22:35:00
5:55 PM,86.2,62.8,45,29.96,10.0,SW,4.6,-,N/A,,Clear,220,2013-09-07 22:55:00
6:15 PM,84.6,64.8,51,29.96,10.0,South,3.5,-,N/A,,Clear,190,2013-09-07 23:15:00
6:35 PM,82.8,66.0,57,29.96,10.0,South,3.5,-,N/A,,Clear,180,2013-09-07 23:35:00
6:55 PM,82.0,66.4,59,29.96,10.0,Calm,Calm,-,N/A,,Clear,0,2013-09-07 23:55:00
7:15 PM,80.8,67.1,63,29.97,10.0,Calm,Calm,-,N/A,,Clear,0,2013-09-08 00:15:00
7:35 PM,77.9,67.1,69,29.97,10.0,SSE,4.6,-,N/A,,Clear,150,2013-09-08 00:35:00
7:55 PM,76.6,67.1,72,29.97,10.0,SSE,3.5,-,N/A,,Clear,160,2013-09-08 00:55:00
8:15 PM,75.9,67.1,74,29.97,10.0,Calm,Calm,-,N/A,,Clear,0,2013-09-08 01:15:00
8:35 PM,75.0,67.5,77,29.97,10.0,Calm,Calm,-,N/A,,Clear,0,2013-09-08 01:35:00
8:55 PM,73.6,67.3,81,29.97,10.0,Calm,Calm,-,N/A,,Clear,0,2013-09-08 01:55:00
9:15 PM,73.2,66.4,79,29.98,10.0,Calm,Calm,-,N/A,,Clear,0,2013-09-08 02:15:00
9:35 PM,72.1,66.9,84,29.98,10.0,Calm,Calm,-,N/A,,Clear,0,2013-09-08 02:35:00
9:55 PM,72.1,66.6,83,29.97,10.0,South,3.5,-,N/A,,Clear,180,2013-09-08 02:55:00
10:15 PM,72.1,67.1,84,29.97,10.0,Calm,Calm,-,N/A,,Clear,0,2013-09-08 03:15:00
10:35 PM,72.1,66.9,84,29.97,10.0,Calm,Calm,-,N/A,,Clear,0,2013-09-08 03:35:00
10:55 PM,70.9,66.4,86,29.97,10.0,South,3.5,-,N/A,,Clear,190,2013-09-08 03:55:00
11:15 PM,70.9,66.2,85,29.97,10.0,South,4.6,-,N/A,,Clear,190,2013-09-08 04:15:00
11:55 PM,69.8,65.5,86,29.97,10.0,SSW,3.5,-,N/A,,Clear,200,2013-09-08 04:55:00